User: anonymous   Login
Location: Unspecified
(0.0000°N, 0.0000°E)
Time: 17:18:52
(UTC+00:00)
Language:

DICE 1 - Orbit

View from above orbital plane
View from above orbital plane
View from above satellite
View from above satellite

Ground track
Ground track

The orbit data is extracted from the following two-line orbital elements,

1 37851U 11061B   18145.70219926  .00000640  00000-0  41834-4 0  9992
2 37851 101.7382 191.6304 0185681 166.5151 194.1119 15.02354560357952
Epoch (UTC): 25 May 2018 16:51:10
Eccentricity: 0.0185681
inclination: 101.7382°
perigee height: 431 km
apogee height: 688 km
right ascension of ascending node: 191.6304°
argument of perigee: 166.5151°
revolutions per day: 15.02354560
mean anomaly at epoch: 194.1119°
orbit number at epoch: 35795

The dashed part of the orbit path shows where the satellite is in the earth's shadow,  

DLR